Time,TemperatureF,DewpointF,PressureIn,WindDirection,WindDirectionDegrees,WindSpeedMPH,WindSpeedGustMPH,Humidity,HourlyPrecipIn,Conditions,Clouds,dailyrainin,SoftwareType,DateUTC
2013-03-07 00:04:00,23.4,12.6,30.74,North,351,0.0,0.0,63,0.00,,,0.00,WeatherDisplay:10.36,2013-03-07 06:04:00,
2013-03-07 00:09:00,23.4,13.0,30.74,North,351,0.0,0.0,64,0.00,,,0.00,WeatherDisplay:10.36,2013-03-07 06:09:00,
2013-03-07 00:14:00,23.4,13.0,30.74,North,351,3.6,0.0,64,0.00,,,0.00,WeatherDisplay:10.36,2013-03-07 06:14:00,
2013-03-07 00:19:00,23.2,13.1,30.53,North,351,2.3,0.0,65,0.00,,,0.00,WeatherDisplay:10.36,2013-03-07 06:19:00,
2013-03-07 00:24:00,23.2,13.5,30.53,North,351,3.5,0.0,66,0.00,,,0.00,WeatherDisplay:10.36,2013-03-07 06:24:00,
2013-03-07 00:29:00,23.0,13.3,30.53,North,351,4.6,4.6,66,0.00,,,0.00,WeatherDisplay:10.36,2013-03-07 06:29:00,
2013-03-07 00:34:00,23.0,13.3,30.47,North,351,0.0,0.0,66,0.00,,,0.00,WeatherDisplay:10.36,2013-03-07 06:34:00,
2013-03-07 00:39:00,23.0,13.7,30.47,North,351,0.0,0.0,67,0.00,,,0.00,WeatherDisplay:10.36,2013-03-07 06:39:00,
2013-03-07 00:44:00,23.0,13.7,30.47,North,351,3.5,3.5,67,0.00,,,0.00,WeatherDisplay:10.36,2013-03-07 06:44:00,
2013-03-07 00:49:00,22.8,13.5,30.56,North,351,0.0,0.0,67,0.00,,,0.00,WeatherDisplay:10.36,2013-03-07 06:49:00,
2013-03-07 00:54:00,22.8,13.8,30.56,North,351,0.0,0.0,68,0.00,,,0.00,WeatherDisplay:10.36,2013-03-07 06:54:00,
2013-03-07 00:59:00,22.8,13.8,30.56,North,351,0.0,0.0,68,0.00,,,0.00,WeatherDisplay:10.36,2013-03-07 06:59:00,
2013-03-07 01:04:00,22.6,13.7,30.50,North,351,0.0,0.0,68,0.00,,,0.00,WeatherDisplay:10.36,2013-03-07 07:04:00,
2013-03-07 01:09:00,22.6,13.7,30.50,North,351,0.0,0.0,68,0.00,,,0.00,WeatherDisplay:10.36,2013-03-07 07:09:00,
2013-03-07 01:14:00,22.6,13.7,30.50,North,351,0.0,0.0,68,0.00,,,0.00,WeatherDisplay:10.36,2013-03-07 07:14:00,
2013-03-07 01:19:00,22.5,13.5,30.62,North,351,0.0,0.0,68,0.00,,,0.00,WeatherDisplay:10.36,2013-03-07 07:19:00,
2013-03-07 01:24:00,22.5,13.5,30.62,North,351,0.0,0.0,68,0.00,,,0.00,WeatherDisplay:10.36,2013-03-07 07:24:00,
2013-03-07 01:29:00,22.5,13.5,30.62,North,351,0.0,0.0,68,0.00,,,0.00,WeatherDisplay:10.36,2013-03-07 07:29:00,
2013-03-07 01:34:00,22.3,13.3,30.53,North,351,3.5,3.5,68,0.00,,,0.00,WeatherDisplay:10.36,2013-03-07 07:34:00,
2013-03-07 01:39:00,22.3,13.3,30.53,North,351,0.0,0.0,68,0.00,,,0.00,WeatherDisplay:10.36,2013-03-07 07:39:00,
2013-03-07 01:44:00,22.3,13.6,30.53,North,351,0.0,0.0,69,0.00,,,0.00,WeatherDisplay:10.36,2013-03-07 07:44:00,
2013-03-07 01:49:00,22.3,13.6,30.35,North,351,0.0,0.0,69,0.00,,,0.00,WeatherDisplay:10.36,2013-03-07 07:49:00,
2013-03-07 01:54:00,22.3,13.6,30.35,North,351,0.0,0.0,69,0.00,,,0.00,WeatherDisplay:10.36,2013-03-07 07:54:00,
2013-03-07 02:00:00,22.1,13.5,30.35,North,351,0.0,0.0,69,0.00,,,0.00,WeatherDisplay:10.36,2013-03-07 08:00:00,
2013-03-07 02:05:00,22.1,13.8,30.35,North,351,0.0,0.0,70,0.00,,,0.00,WeatherDisplay:10.36,2013-03-07 08:05:00,
2013-03-07 02:10:00,22.1,13.8,30.35,North,351,0.0,0.0,70,0.00,,,0.00,WeatherDisplay:10.36,2013-03-07 08:10:00,
2013-03-07 02:15:00,21.9,13.6,30.35,North,351,0.0,0.0,70,0.00,,,0.00,WeatherDisplay:10.36,2013-03-07 08:15:00,
2013-03-07 02:20:00,21.9,13.6,30.35,North,351,0.0,0.0,70,0.00,,,0.00,WeatherDisplay:10.36,2013-03-07 08:20:00,
2013-03-07 02:25:00,21.9,13.6,30.35,North,351,0.0,0.0,70,0.00,,,0.00,WeatherDisplay:10.36,2013-03-07 08:25:00,
2013-03-07 02:30:00,21.7,13.5,30.35,North,351,0.0,0.0,70,0.00,,,0.00,WeatherDisplay:10.36,2013-03-07 08:30:00,
2013-03-07 02:35:00,21.7,13.5,30.35,North,351,0.0,0.0,70,0.00,,,0.00,WeatherDisplay:10.36,2013-03-07 08:35:00,
2013-03-07 02:40:00,21.6,13.3,30.35,North,351,0.0,0.0,70,0.00,,,0.00,WeatherDisplay:10.36,2013-03-07 08:40:00,
2013-03-07 02:45:00,21.6,13.3,30.35,NNW,346,0.0,0.0,70,0.00,,,0.00,WeatherDisplay:10.36,2013-03-07 08:45:00,
2013-03-07 02:51:00,21.4,13.1,30.35,North,351,0.0,0.0,70,0.00,,,0.00,WeatherDisplay:10.36,2013-03-07 08:51:00,
2013-03-07 02:56:00,21.4,13.1,30.35,North,351,0.0,0.0,70,0.00,,,0.00,WeatherDisplay:10.36,2013-03-07 08:56:00,
2013-03-07 03:01:00,21.2,12.9,30.35,North,351,0.0,0.0,70,0.00,,,0.00,WeatherDisplay:10.36,2013-03-07 09:01:00,
2013-03-07 03:06:00,21.2,12.9,30.35,North,351,0.0,0.0,70,0.00,,,0.00,WeatherDisplay:10.36,2013-03-07 09:06:00,
2013-03-07 03:11:00,21.0,12.8,30.35,North,351,0.0,0.0,70,0.00,,,0.00,WeatherDisplay:10.36,2013-03-07 09:11:00,
2013-03-07 03:17:00,21.0,12.8,30.35,North,351,0.0,0.0,70,0.00,,,0.00,WeatherDisplay:10.36,2013-03-07 09:17:00,
2013-03-07 03:22:00,20.8,12.6,30.35,North,351,0.0,0.0,70,0.00,,,0.00,WeatherDisplay:10.36,2013-03-07 09:22:00,
2013-03-07 03:28:00,20.8,12.6,30.35,North,351,0.0,0.0,70,0.00,,,0.00,WeatherDisplay:10.36,2013-03-07 09:28:00,
2013-03-07 03:33:00,20.7,12.7,30.35,North,351,0.0,0.0,71,0.00,,,0.00,WeatherDisplay:10.36,2013-03-07 09:33:00,
2013-03-07 03:38:00,20.7,12.7,30.35,North,351,0.0,0.0,71,0.00,,,0.00,WeatherDisplay:10.36,2013-03-07 09:38:00,
2013-03-07 03:43:00,20.7,12.7,30.35,North,351,0.0,0.0,71,0.00,,,0.00,WeatherDisplay:10.36,2013-03-07 09:43:00,
2013-03-07 03:48:00,20.7,12.7,30.35,North,351,0.0,0.0,71,0.00,,,0.00,WeatherDisplay:10.36,2013-03-07 09:48:00,
2013-03-07 03:54:00,20.7,12.7,30.35,North,351,0.0,0.0,71,0.00,,,0.00,WeatherDisplay:10.36,2013-03-07 09:54:00,
2013-03-07 03:59:00,20.7,12.7,30.35,North,351,0.0,0.0,71,0.00,,,0.00,WeatherDisplay:10.36,2013-03-07 09:59:00,
2013-03-07 04:04:00,20.5,12.6,30.35,North,351,0.0,0.0,71,0.00,,,0.00,WeatherDisplay:10.36,2013-03-07 10:04:00,
2013-03-07 04:09:00,20.5,12.6,30.35,North,351,0.0,0.0,71,0.00,,,0.00,WeatherDisplay:10.36,2013-03-07 10:09:00,
2013-03-07 04:14:00,20.5,12.6,30.35,North,351,0.0,0.0,71,0.00,,,0.00,WeatherDisplay:10.36,2013-03-07 10:14:00,
2013-03-07 04:19:00,20.5,12.6,30.35,North,351,0.0,0.0,71,0.00,,,0.00,WeatherDisplay:10.36,2013-03-07 10:19:00,
2013-03-07 04:24:00,20.5,12.9,30.35,North,351,0.0,0.0,72,0.00,,,0.00,WeatherDisplay:10.36,2013-03-07 10:24:00,
2013-03-07 04:29:00,20.5,12.9,30.35,North,351,0.0,0.0,72,0.00,,,0.00,WeatherDisplay:10.36,2013-03-07 10:29:00,
2013-03-07 04:34:00,20.5,12.9,30.35,North,351,0.0,0.0,72,0.00,,,0.00,WeatherDisplay:10.36,2013-03-07 10:34:00,
2013-03-07 04:39:00,20.3,12.7,30.35,North,351,0.0,0.0,72,0.00,,,0.00,WeatherDisplay:10.36,2013-03-07 10:39:00,
2013-03-07 04:44:00,20.3,13.0,30.35,North,351,2.7,2.7,73,0.00,,,0.00,WeatherDisplay:10.36,2013-03-07 10:44:00,
2013-03-07 04:49:00,20.3,13.0,30.35,North,351,3.6,0.0,73,0.00,,,0.00,WeatherDisplay:10.36,2013-03-07 10:49:00,
2013-03-07 04:54:00,20.1,13.2,30.35,NW,305,0.0,0.0,74,0.00,,,0.00,WeatherDisplay:10.36,2013-03-07 10:54:00,
2013-03-07 04:59:00,20.1,13.2,30.35,NW,322,0.0,0.0,74,0.00,,,0.00,WeatherDisplay:10.36,2013-03-07 10:59:00,
2013-03-07 05:04:00,20.1,13.2,30.35,North,351,0.0,0.0,74,0.00,,,0.00,WeatherDisplay:10.36,2013-03-07 11:04:00,
2013-03-07 05:09:00,20.1,13.5,30.35,NNW,345,0.0,0.0,75,0.00,,,0.00,WeatherDisplay:10.36,2013-03-07 11:09:00,
2013-03-07 05:14:00,20.1,13.5,30.35,NW,321,0.0,0.0,75,0.00,,,0.00,WeatherDisplay:10.36,2013-03-07 11:14:00,
2013-03-07 05:20:00,19.9,13.3,30.35,North,351,0.0,0.0,75,0.00,,,0.00,WeatherDisplay:10.36,2013-03-07 11:20:00,
2013-03-07 05:26:00,20.3,13.6,30.35,NNW,334,0.0,0.0,75,0.00,,,0.00,WeatherDisplay:10.36,2013-03-07 11:26:00,
2013-03-07 05:31:00,20.5,13.8,30.35,NNW,342,0.0,0.0,75,0.00,,,0.00,WeatherDisplay:10.36,2013-03-07 11:31:00,
2013-03-07 05:36:00,20.1,13.5,30.35,North,351,0.0,0.0,75,0.00,,,0.00,WeatherDisplay:10.36,2013-03-07 11:36:00,
2013-03-07 05:41:00,20.1,13.5,30.35,North,351,0.0,0.0,75,0.00,,,0.00,WeatherDisplay:10.36,2013-03-07 11:41:00,
2013-03-07 05:46:00,20.5,13.8,30.35,North,351,0.0,0.0,75,0.00,,,0.00,WeatherDisplay:10.36,2013-03-07 11:46:00,
2013-03-07 05:51:00,20.5,13.8,30.35,North,351,0.0,0.0,75,0.00,,,0.00,WeatherDisplay:10.36,2013-03-07 11:51:00,
2013-03-07 05:56:00,20.7,14.0,30.35,North,351,0.0,0.0,75,0.00,,,0.00,WeatherDisplay:10.36,2013-03-07 11:56:00,
2013-03-07 06:01:00,20.5,13.8,30.38,North,351,0.0,0.0,75,0.00,,,0.00,WeatherDisplay:10.36,2013-03-07 12:01:00,
2013-03-07 06:06:00,20.5,13.8,30.38,North,351,0.0,0.0,75,0.00,,,0.00,WeatherDisplay:10.36,2013-03-07 12:06:00,
2013-03-07 06:11:00,20.5,13.8,30.38,North,351,0.0,0.0,75,0.00,,,0.00,WeatherDisplay:10.36,2013-03-07 12:11:00,
2013-03-07 06:16:00,20.5,13.8,30.38,North,351,0.0,0.0,75,0.00,,,0.00,WeatherDisplay:10.36,2013-03-07 12:16:00,
2013-03-07 06:21:00,20.3,13.6,30.47,North,351,0.0,0.0,75,0.00,,,0.00,WeatherDisplay:10.36,2013-03-07 12:21:00,
2013-03-07 06:26:00,20.3,13.9,30.47,North,351,0.0,0.0,76,0.00,,,0.00,WeatherDisplay:10.36,2013-03-07 12:26:00,
2013-03-07 06:31:00,20.3,13.9,30.47,North,351,0.0,0.0,76,0.00,,,0.00,WeatherDisplay:10.36,2013-03-07 12:31:00,
2013-03-07 06:36:00,20.1,13.8,30.41,North,351,0.0,0.0,76,0.00,,,0.00,WeatherDisplay:10.36,2013-03-07 12:36:00,
2013-03-07 06:41:00,20.1,13.8,30.41,North,351,0.0,0.0,76,0.00,,,0.00,WeatherDisplay:10.36,2013-03-07 12:41:00,
2013-03-07 06:46:00,19.9,13.9,30.56,North,351,0.0,0.0,77,0.00,,,0.00,WeatherDisplay:10.36,2013-03-07 12:46:00,
2013-03-07 06:51:00,19.9,13.9,30.56,North,351,0.0,0.0,77,0.00,,,0.00,WeatherDisplay:10.36,2013-03-07 12:51:00,
2013-03-07 06:56:00,19.9,13.9,30.56,North,351,0.0,0.0,77,0.00,,,0.00,WeatherDisplay:10.36,2013-03-07 12:56:00,
2013-03-07 07:02:00,19.9,13.9,30.47,North,351,0.0,0.0,77,0.00,,,0.00,WeatherDisplay:10.36,2013-03-07 13:02:00,
2013-03-07 07:07:00,20.1,14.1,30.47,North,351,0.0,0.0,77,0.00,,,0.00,WeatherDisplay:10.36,2013-03-07 13:07:00,
2013-03-07 07:12:00,20.3,14.2,30.47,North,351,0.0,0.0,77,0.00,,,0.00,WeatherDisplay:10.36,2013-03-07 13:12:00,
2013-03-07 07:18:00,20.5,14.4,30.41,North,351,0.0,0.0,77,0.00,,,0.00,WeatherDisplay:10.36,2013-03-07 13:18:00,
2013-03-07 07:23:00,21.0,15.2,30.41,North,351,0.0,0.0,78,0.00,,,0.00,WeatherDisplay:10.36,2013-03-07 13:23:00,
2013-03-07 07:28:00,21.6,15.8,30.41,North,351,0.0,0.0,78,0.00,,,0.00,WeatherDisplay:10.36,2013-03-07 13:28:00,
2013-03-07 07:33:00,22.1,16.3,30.38,North,351,0.0,0.0,78,0.00,,,0.00,WeatherDisplay:10.36,2013-03-07 13:33:00,
2013-03-07 07:38:00,22.6,16.8,30.38,North,351,0.0,0.0,78,0.00,,,0.00,WeatherDisplay:10.36,2013-03-07 13:38:00,
2013-03-07 07:43:00,23.0,17.2,30.38,North,351,0.0,0.0,78,0.00,,,0.00,WeatherDisplay:10.36,2013-03-07 13:43:00,
2013-03-07 07:48:00,23.7,17.9,30.38,NNW,338,0.0,0.0,78,0.00,,,0.00,WeatherDisplay:10.36,2013-03-07 13:48:00,
2013-03-07 07:53:00,24.1,18.2,30.38,East,81,0.0,0.0,78,0.00,,,0.00,WeatherDisplay:10.36,2013-03-07 13:53:00,
2013-03-07 07:58:00,24.6,19.0,30.38,NNE,30,0.0,0.0,79,0.00,,,0.00,WeatherDisplay:10.36,2013-03-07 13:58:00,
2013-03-07 08:03:00,25.0,19.4,30.38,NE,44,3.6,0.0,79,0.00,,,0.00,WeatherDisplay:10.36,2013-03-07 14:03:00,
2013-03-07 08:08:00,25.5,19.9,30.38,ESE,104,3.5,0.0,79,0.00,,,0.00,WeatherDisplay:10.36,2013-03-07 14:08:00,
2013-03-07 08:13:00,25.9,20.0,30.38,NNE,26,3.6,3.6,78,0.00,,,0.00,WeatherDisplay:10.36,2013-03-07 14:13:00,
2013-03-07 08:18:00,25.7,19.8,30.38,NE,37,0.0,0.0,78,0.00,,,0.00,WeatherDisplay:10.36,2013-03-07 14:18:00,
2013-03-07 08:23:00,25.9,19.7,30.38,NE,45,3.6,0.0,77,0.00,,,0.00,WeatherDisplay:10.36,2013-03-07 14:23:00,
2013-03-07 08:28:00,26.2,20.0,30.38,East,87,5.8,5.8,77,0.00,,,0.00,WeatherDisplay:10.36,2013-03-07 14:28:00,
2013-03-07 08:33:00,26.6,20.1,30.38,NNE,26,4.6,4.6,76,0.00,,,0.00,WeatherDisplay:10.36,2013-03-07 14:33:00,
2013-03-07 08:38:00,26.6,19.4,30.38,North,351,4.6,4.6,74,0.00,,,0.00,WeatherDisplay:10.36,2013-03-07 14:38:00,
2013-03-07 08:44:00,26.8,18.3,30.38,ENE,72,3.6,3.6,70,0.00,,,0.00,WeatherDisplay:10.36,2013-03-07 14:44:00,
2013-03-07 08:49:00,27.1,18.3,30.41,ENE,58,4.0,0.0,69,0.00,,,0.00,WeatherDisplay:10.36,2013-03-07 14:49:00,
2013-03-07 08:54:00,27.1,17.6,30.41,NNE,27,4.5,0.0,67,0.00,,,0.00,WeatherDisplay:10.36,2013-03-07 14:54:00,
2013-03-07 08:59:00,27.9,18.0,30.41,SE,141,4.6,4.6,66,0.00,,,0.00,WeatherDisplay:10.36,2013-03-07 14:59:00,
2013-03-07 09:05:00,28.2,18.0,30.38,NE,55,3.6,3.6,65,0.00,,,0.00,WeatherDisplay:10.36,2013-03-07 15:05:00,
2013-03-07 09:10:00,28.6,17.6,30.38,NE,46,3.6,3.6,63,0.00,,,0.00,WeatherDisplay:10.36,2013-03-07 15:10:00,
2013-03-07 09:15:00,28.8,17.0,30.38,NNE,26,5.4,5.4,61,0.00,,,0.00,WeatherDisplay:10.36,2013-03-07 15:15:00,
2013-03-07 09:21:00,28.4,15.1,30.38,ENE,71,5.8,5.8,57,0.00,,,0.00,WeatherDisplay:10.36,2013-03-07 15:21:00,
2013-03-07 09:26:00,28.4,15.1,30.38,East,92,6.3,6.3,57,0.00,,,0.00,WeatherDisplay:10.36,2013-03-07 15:26:00,
2013-03-07 09:31:00,28.8,15.0,30.38,NE,53,4.9,4.9,56,0.00,,,0.00,WeatherDisplay:10.36,2013-03-07 15:31:00,
2013-03-07 09:37:00,28.4,13.9,30.38,NNE,26,7.8,7.8,54,0.00,,,0.00,WeatherDisplay:10.36,2013-03-07 15:37:00,
2013-03-07 09:42:00,28.6,14.4,30.38,NE,38,6.7,6.7,55,0.00,,,0.00,WeatherDisplay:10.36,2013-03-07 15:42:00,
2013-03-07 09:47:00,29.7,15.9,30.38,NE,37,5.4,5.4,56,0.00,,,0.00,WeatherDisplay:10.36,2013-03-07 15:47:00,
2013-03-07 09:52:00,29.7,14.6,30.38,NE,36,8.1,8.1,53,0.00,,,0.00,WeatherDisplay:10.36,2013-03-07 15:52:00,
2013-03-07 09:57:00,29.5,14.4,30.38,NNE,26,3.5,3.5,53,0.00,,,0.00,WeatherDisplay:10.36,2013-03-07 15:57:00,
2013-03-07 10:02:00,29.7,15.0,30.38,NNE,26,6.9,6.9,54,0.00,,,0.00,WeatherDisplay:10.36,2013-03-07 16:02:00,
2013-03-07 10:07:00,30.4,16.1,30.38,NNE,27,6.9,6.9,55,0.00,,,0.00,WeatherDisplay:10.36,2013-03-07 16:07:00,
2013-03-07 10:12:00,30.6,15.0,30.38,North,351,9.2,9.2,52,0.00,,,0.00,WeatherDisplay:10.36,2013-03-07 16:12:00,
2013-03-07 10:17:00,29.8,14.8,30.38,NNE,26,5.8,5.8,53,0.00,,,0.00,WeatherDisplay:10.36,2013-03-07 16:17:00,
2013-03-07 10:22:00,29.8,15.2,30.38,NE,43,6.9,6.9,54,0.00,,,0.00,WeatherDisplay:10.36,2013-03-07 16:22:00,
2013-03-07 10:27:00,30.6,16.3,30.38,East,90,6.9,6.9,55,0.00,,,0.00,WeatherDisplay:10.36,2013-03-07 16:27:00,
2013-03-07 10:32:00,31.8,17.5,30.38,NE,52,5.8,5.8,55,0.00,,,0.00,WeatherDisplay:10.36,2013-03-07 16:32:00,
2013-03-07 10:37:00,32.7,17.9,30.38,NE,38,5.8,5.8,54,0.00,,,0.00,WeatherDisplay:10.36,2013-03-07 16:37:00,
2013-03-07 10:42:00,33.1,16.9,30.38,NE,39,5.8,5.8,51,0.00,,,0.00,WeatherDisplay:10.36,2013-03-07 16:42:00,
2013-03-07 10:47:00,33.1,16.4,30.38,NE,46,6.9,6.9,50,0.00,,,0.00,WeatherDisplay:10.36,2013-03-07 16:47:00,
2013-03-07 10:52:00,33.1,16.9,30.38,NE,51,5.8,5.8,51,0.00,,,0.00,WeatherDisplay:10.36,2013-03-07 16:52:00,
2013-03-07 10:57:00,33.6,17.4,30.38,NE,36,6.9,6.9,51,0.00,,,0.00,WeatherDisplay:10.36,2013-03-07 16:57:00,
2013-03-07 11:02:00,33.8,17.1,30.38,ENE,69,6.3,6.3,50,0.00,,,0.00,WeatherDisplay:10.36,2013-03-07 17:02:00,
2013-03-07 11:07:00,33.6,16.9,30.38,NNE,28,7.8,7.8,50,0.00,,,0.00,WeatherDisplay:10.36,2013-03-07 17:07:00,
2013-03-07 11:12:00,33.4,16.8,30.38,NE,39,4.9,4.9,50,0.00,,,0.00,WeatherDisplay:10.36,2013-03-07 17:12:00,
2013-03-07 11:18:00,33.3,17.1,30.35,NNE,26,5.8,5.8,51,0.00,,,0.00,WeatherDisplay:10.36,2013-03-07 17:18:00,
2013-03-07 11:24:00,33.4,17.2,30.35,NNE,33,8.1,8.1,51,0.00,,,0.00,WeatherDisplay:10.36,2013-03-07 17:24:00,
2013-03-07 11:30:00,33.6,17.4,30.35,North,351,6.9,6.9,51,0.00,,,0.00,WeatherDisplay:10.36,2013-03-07 17:30:00,
2013-03-07 11:35:00,33.8,17.6,30.35,NNE,26,4.9,4.9,51,0.00,,,0.00,WeatherDisplay:10.36,2013-03-07 17:35:00,
2013-03-07 11:40:00,34.2,17.9,30.35,NE,35,6.9,6.9,51,0.00,,,0.00,WeatherDisplay:10.36,2013-03-07 17:40:00,
2013-03-07 11:45:00,34.7,18.4,30.35,NNE,28,0.0,4.0,51,0.00,,,0.00,WeatherDisplay:10.36,2013-03-07 17:45:00,
2013-03-07 11:50:00,34.7,17.9,31.15,East,90,6.9,6.9,50,0.00,,,0.00,WeatherDisplay:10.36,2013-03-07 17:50:00,
2013-03-07 11:55:00,35.1,18.3,31.15,NNE,26,5.4,5.4,50,0.00,,,0.00,WeatherDisplay:10.36,2013-03-07 17:55:00,
2013-03-07 12:01:00,35.4,18.1,31.15,NNE,25,4.9,4.9,49,0.00,,,0.00,WeatherDisplay:10.36,2013-03-07 18:01:00,
2013-03-07 12:06:00,35.8,18.5,30.35,East,81,4.5,4.5,49,0.00,,,0.00,WeatherDisplay:10.36,2013-03-07 18:06:00,
2013-03-07 12:12:00,35.8,17.5,30.35,NNE,30,8.1,8.1,47,0.00,,,0.00,WeatherDisplay:10.36,2013-03-07 18:12:00,
2013-03-07 12:17:00,35.4,17.2,30.35,NNE,33,6.3,6.3,47,0.00,,,0.00,WeatherDisplay:10.36,2013-03-07 18:17:00,
2013-03-07 12:22:00,35.8,18.0,30.35,NE,45,6.3,6.3,48,0.00,,,0.00,WeatherDisplay:10.36,2013-03-07 18:22:00,
2013-03-07 12:27:00,35.8,17.0,30.35,ENE,71,4.9,4.9,46,0.00,,,0.00,WeatherDisplay:10.36,2013-03-07 18:27:00,
2013-03-07 12:32:00,36.3,18.0,30.35,NE,36,6.9,6.9,47,0.00,,,0.00,WeatherDisplay:10.36,2013-03-07 18:32:00,
2013-03-07 12:37:00,36.3,16.5,30.35,NE,45,6.3,6.3,44,0.00,,,0.00,WeatherDisplay:10.36,2013-03-07 18:37:00,
2013-03-07 12:42:00,36.5,16.6,30.35,NNE,33,6.7,6.7,44,0.00,,,0.00,WeatherDisplay:10.36,2013-03-07 18:42:00,
2013-03-07 12:47:00,36.5,16.6,30.32,ENE,57,6.9,6.9,44,0.00,,,0.00,WeatherDisplay:10.36,2013-03-07 18:47:00,
2013-03-07 12:52:00,36.5,16.6,30.32,NE,38,6.9,6.9,44,0.00,,,0.00,WeatherDisplay:10.36,2013-03-07 18:52:00,
2013-03-07 12:57:00,36.9,17.0,30.32,ENE,68,8.3,8.3,44,0.00,,,0.00,WeatherDisplay:10.36,2013-03-07 18:57:00,
2013-03-07 13:02:00,36.9,16.4,30.32,NE,41,5.8,5.8,43,0.00,,,0.00,WeatherDisplay:10.36,2013-03-07 19:02:00,
2013-03-07 13:07:00,37.4,17.4,30.32,ENE,62,5.8,5.8,44,0.00,,,0.00,WeatherDisplay:10.36,2013-03-07 19:07:00,
2013-03-07 13:12:00,37.6,17.1,30.32,NE,37,6.7,6.7,43,0.00,,,0.00,WeatherDisplay:10.36,2013-03-07 19:12:00,
2013-03-07 13:17:00,37.9,16.9,30.32,NE,47,7.4,7.4,42,0.00,,,0.00,WeatherDisplay:10.36,2013-03-07 19:17:00,
2013-03-07 13:22:00,37.9,16.9,30.32,NE,36,6.9,6.9,42,0.00,,,0.00,WeatherDisplay:10.36,2013-03-07 19:22:00,
2013-03-07 13:27:00,37.8,16.1,30.32,SSW,198,8.3,8.3,41,0.00,,,0.00,WeatherDisplay:10.36,2013-03-07 19:27:00,
2013-03-07 13:33:00,37.6,16.5,30.29,NE,51,7.4,7.4,42,0.00,,,0.00,WeatherDisplay:10.36,2013-03-07 19:33:00,
2013-03-07 13:39:00,37.4,15.8,30.29,NNE,28,5.8,5.8,41,0.00,,,0.00,WeatherDisplay:10.36,2013-03-07 19:39:00,
2013-03-07 13:44:00,37.2,15.6,30.29,NE,41,9.2,9.2,41,0.00,,,0.00,WeatherDisplay:10.36,2013-03-07 19:44:00,
2013-03-07 13:49:00,37.2,15.6,30.29,ENE,58,6.9,6.9,41,0.00,,,0.00,WeatherDisplay:10.36,2013-03-07 19:49:00,
2013-03-07 13:54:00,37.4,16.4,30.29,NE,47,6.9,6.9,42,0.00,,,0.00,WeatherDisplay:10.36,2013-03-07 19:54:00,
2013-03-07 13:59:00,37.4,16.4,30.29,ESE,122,6.9,6.9,42,0.00,,,0.00,WeatherDisplay:10.36,2013-03-07 19:59:00,
2013-03-07 14:04:00,37.8,17.2,30.29,NE,42,8.1,8.1,43,0.00,,,0.00,WeatherDisplay:10.36,2013-03-07 20:04:00,
2013-03-07 14:09:00,37.8,16.7,30.29,NE,35,6.9,6.9,42,0.00,,,0.00,WeatherDisplay:10.36,2013-03-07 20:09:00,
2013-03-07 14:14:00,37.9,16.9,30.29,East,97,5.4,5.4,42,0.00,,,0.00,WeatherDisplay:10.36,2013-03-07 20:14:00,
2013-03-07 14:19:00,37.9,16.9,30.29,ESE,123,7.4,7.4,42,0.00,,,0.00,WeatherDisplay:10.36,2013-03-07 20:19:00,
2013-03-07 14:24:00,37.8,16.7,30.29,SSE,149,6.9,6.9,42,0.00,,,0.00,WeatherDisplay:10.36,2013-03-07 20:24:00,
2013-03-07 14:29:00,37.9,16.9,30.29,ENE,70,8.3,8.3,42,0.00,,,0.00,WeatherDisplay:10.36,2013-03-07 20:29:00,
2013-03-07 14:34:00,37.9,16.9,30.29,South,183,6.9,6.9,42,0.00,,,0.00,WeatherDisplay:10.36,2013-03-07 20:34:00,
2013-03-07 14:39:00,37.9,16.9,30.29,NE,37,9.2,9.2,42,0.00,,,0.00,WeatherDisplay:10.36,2013-03-07 20:39:00,
2013-03-07 14:44:00,37.8,16.7,30.29,NE,51,7.4,7.4,42,0.00,,,0.00,WeatherDisplay:10.36,2013-03-07 20:44:00,
2013-03-07 14:49:00,37.4,16.4,30.29,NE,46,6.9,6.9,42,0.00,,,0.00,WeatherDisplay:10.36,2013-03-07 20:49:00,
2013-03-07 14:54:00,37.4,16.9,30.29,NE,48,5.8,5.8,43,0.00,,,0.00,WeatherDisplay:10.36,2013-03-07 20:54:00,
2013-03-07 14:59:00,37.6,17.1,30.29,NNE,31,6.3,6.3,43,0.00,,,0.00,WeatherDisplay:10.36,2013-03-07 20:59:00,
2013-03-07 15:04:00,37.6,17.1,30.29,NE,46,7.4,7.4,43,0.00,,,0.00,WeatherDisplay:10.36,2013-03-07 21:04:00,
2013-03-07 15:09:00,37.6,16.5,30.29,NE,34,7.4,7.4,42,0.00,,,0.00,WeatherDisplay:10.36,2013-03-07 21:09:00,
2013-03-07 15:14:00,37.4,16.4,30.29,East,95,8.1,8.1,42,0.00,,,0.00,WeatherDisplay:10.36,2013-03-07 21:14:00,
2013-03-07 15:19:00,37.4,16.4,30.29,ESE,110,6.3,6.3,42,0.00,,,0.00,WeatherDisplay:10.36,2013-03-07 21:19:00,
2013-03-07 15:24:00,37.6,16.5,30.29,NE,39,6.9,6.9,42,0.00,,,0.00,WeatherDisplay:10.36,2013-03-07 21:24:00,
2013-03-07 15:29:00,37.8,16.7,30.29,NE,42,8.3,8.3,42,0.00,,,0.00,WeatherDisplay:10.36,2013-03-07 21:29:00,
2013-03-07 15:34:00,37.8,16.7,30.26,NE,43,8.3,8.3,42,0.00,,,0.00,WeatherDisplay:10.36,2013-03-07 21:34:00,
2013-03-07 15:39:00,37.9,16.9,30.26,NE,39,6.3,6.3,42,0.00,,,0.00,WeatherDisplay:10.36,2013-03-07 21:39:00,
2013-03-07 15:44:00,38.1,16.5,30.26,NE,36,4.9,4.9,41,0.00,,,0.00,WeatherDisplay:10.36,2013-03-07 21:44:00,
2013-03-07 15:49:00,38.1,17.0,30.29,NNE,32,4.6,4.6,42,0.00,,,0.00,WeatherDisplay:10.36,2013-03-07 21:49:00,
2013-03-07 15:54:00,38.1,16.5,30.29,NE,36,6.3,6.3,41,0.00,,,0.00,WeatherDisplay:10.36,2013-03-07 21:54:00,
2013-03-07 15:59:00,38.1,16.5,30.29,SSE,155,6.9,6.9,41,0.00,,,0.00,WeatherDisplay:10.36,2013-03-07 21:59:00,
2013-03-07 16:04:00,38.1,16.5,30.26,NE,43,5.8,5.8,41,0.00,,,0.00,WeatherDisplay:10.36,2013-03-07 22:04:00,
2013-03-07 16:09:00,37.9,16.3,30.26,NE,44,6.9,6.9,41,0.00,,,0.00,WeatherDisplay:10.36,2013-03-07 22:09:00,
2013-03-07 16:14:00,37.9,16.9,30.26,NE,51,5.8,5.8,42,0.00,,,0.00,WeatherDisplay:10.36,2013-03-07 22:14:00,
2013-03-07 16:19:00,37.9,16.9,30.26,NE,39,5.8,5.8,42,0.00,,,0.00,WeatherDisplay:10.36,2013-03-07 22:19:00,
2013-03-07 16:24:00,37.9,17.4,30.26,NNE,30,3.6,3.6,43,0.00,,,0.00,WeatherDisplay:10.36,2013-03-07 22:24:00,
2013-03-07 16:29:00,38.1,17.6,30.26,ENE,71,4.9,4.9,43,0.00,,,0.00,WeatherDisplay:10.36,2013-03-07 22:29:00,
2013-03-07 16:34:00,37.9,17.4,30.26,East,79,6.3,6.3,43,0.00,,,0.00,WeatherDisplay:10.36,2013-03-07 22:34:00,
2013-03-07 16:39:00,37.9,17.4,30.26,NNE,27,5.8,5.8,43,0.00,,,0.00,WeatherDisplay:10.36,2013-03-07 22:39:00,
2013-03-07 16:44:00,37.9,17.4,30.26,NE,44,5.8,5.8,43,0.00,,,0.00,WeatherDisplay:10.36,2013-03-07 22:44:00,
2013-03-07 16:49:00,37.9,17.4,30.26,NE,38,5.8,5.8,43,0.00,,,0.00,WeatherDisplay:10.36,2013-03-07 22:49:00,
2013-03-07 16:54:00,37.8,17.2,30.26,NE,34,4.5,4.5,43,0.00,,,0.00,WeatherDisplay:10.36,2013-03-07 22:54:00,
2013-03-07 16:59:00,37.8,17.2,30.26,WNW,301,5.8,5.8,43,0.00,,,0.00,WeatherDisplay:10.36,2013-03-07 22:59:00,
2013-03-07 17:04:00,37.6,17.1,30.26,SSE,150,4.9,4.9,43,0.00,,,0.00,WeatherDisplay:10.36,2013-03-07 23:04:00,
2013-03-07 17:09:00,37.6,17.1,30.26,ESE,118,5.8,5.8,43,0.00,,,0.00,WeatherDisplay:10.36,2013-03-07 23:09:00,
2013-03-07 17:14:00,37.4,17.4,30.26,NE,51,4.6,4.6,44,0.00,,,0.00,WeatherDisplay:10.36,2013-03-07 23:14:00,
2013-03-07 17:19:00,37.2,17.3,30.26,East,93,4.0,4.0,44,0.00,,,0.00,WeatherDisplay:10.36,2013-03-07 23:19:00,
2013-03-07 17:24:00,37.2,17.3,30.26,NE,39,3.6,3.6,44,0.00,,,0.00,WeatherDisplay:10.36,2013-03-07 23:24:00,
2013-03-07 17:29:00,37.0,17.6,30.26,ENE,76,4.0,4.0,45,0.00,,,0.00,WeatherDisplay:10.36,2013-03-07 23:29:00,
2013-03-07 17:34:00,37.0,17.6,30.26,NNE,33,4.6,4.6,45,0.00,,,0.00,WeatherDisplay:10.36,2013-03-07 23:34:00,
2013-03-07 17:39:00,36.9,17.5,30.26,NNE,27,2.3,0.0,45,0.00,,,0.00,WeatherDisplay:10.36,2013-03-07 23:39:00,
2013-03-07 17:44:00,36.7,17.3,30.26,East,90,3.6,0.0,45,0.00,,,0.00,WeatherDisplay:10.36,2013-03-07 23:44:00,
2013-03-07 17:49:00,36.7,17.8,30.26,NNE,26,3.6,3.6,46,0.00,,,0.00,WeatherDisplay:10.36,2013-03-07 23:49:00,
2013-03-07 17:54:00,36.3,18.5,30.26,NNE,25,4.6,4.6,48,0.00,,,0.00,WeatherDisplay:10.36,2013-03-07 23:54:00,
2013-03-07 17:59:00,36.1,18.8,30.26,NNE,25,4.9,4.9,49,0.00,,,0.00,WeatherDisplay:10.36,2013-03-07 23:59:00,
2013-03-07 18:04:00,36.0,18.6,30.26,NNE,25,0.0,0.0,49,0.00,,,0.00,WeatherDisplay:10.36,2013-03-08 00:04:00,
2013-03-07 18:09:00,35.8,18.5,30.26,NNE,27,0.0,0.0,49,0.00,,,0.00,WeatherDisplay:10.36,2013-03-08 00:09:00,
2013-03-07 18:14:00,35.6,18.8,30.26,NNE,30,3.5,0.0,50,0.00,,,0.00,WeatherDisplay:10.36,2013-03-08 00:14:00,
2013-03-07 18:19:00,35.4,18.6,30.26,ENE,76,3.5,3.5,50,0.00,,,0.00,WeatherDisplay:10.36,2013-03-08 00:19:00,
2013-03-07 18:24:00,35.4,18.6,30.26,NE,47,0.0,0.0,50,0.00,,,0.00,WeatherDisplay:10.36,2013-03-08 00:24:00,
2013-03-07 18:29:00,35.2,18.4,30.26,ENE,60,0.0,0.0,50,0.00,,,0.00,WeatherDisplay:10.36,2013-03-08 00:29:00,
2013-03-07 18:34:00,35.1,18.7,30.26,ENE,70,0.0,0.0,51,0.00,,,0.00,WeatherDisplay:10.36,2013-03-08 00:34:00,
2013-03-07 18:40:00,34.9,18.6,30.26,NNE,28,0.0,0.0,51,0.00,,,0.00,WeatherDisplay:10.36,2013-03-08 00:40:00,
2013-03-07 18:45:00,34.7,18.9,30.26,NNE,26,3.5,0.0,52,0.00,,,0.00,WeatherDisplay:10.36,2013-03-08 00:45:00,
2013-03-07 18:51:00,34.5,20.0,30.26,West,266,4.0,4.0,55,0.00,,,0.00,WeatherDisplay:10.36,2013-03-08 00:51:00,
2013-03-07 18:56:00,34.3,20.3,30.26,NNE,27,0.0,3.6,56,0.00,,,0.00,WeatherDisplay:10.36,2013-03-08 00:56:00,
2013-03-07 19:01:00,34.3,20.3,30.26,SSE,161,4.6,4.6,56,0.00,,,0.00,WeatherDisplay:10.36,2013-03-08 01:01:00,
2013-03-07 19:06:00,34.2,20.5,30.29,NNE,27,4.0,4.0,57,0.00,,,0.00,WeatherDisplay:10.36,2013-03-08 01:06:00,
2013-03-07 19:11:00,34.2,20.5,30.29,NNE,26,4.9,0.0,57,0.00,,,0.00,WeatherDisplay:10.36,2013-03-08 01:11:00,
2013-03-07 19:16:00,34.2,20.5,30.29,NNE,26,4.5,4.5,57,0.00,,,0.00,WeatherDisplay:10.36,2013-03-08 01:16:00,
2013-03-07 19:21:00,34.2,20.9,30.29,NNE,26,3.5,0.0,58,0.00,,,0.00,WeatherDisplay:10.36,2013-03-08 01:21:00,
2013-03-07 19:26:00,34.2,20.9,30.29,NNE,26,3.6,3.6,58,0.00,,,0.00,WeatherDisplay:10.36,2013-03-08 01:26:00,
2013-03-07 19:31:00,34.2,20.9,30.29,SE,125,2.7,0.0,58,0.00,,,0.00,WeatherDisplay:10.36,2013-03-08 01:31:00,
2013-03-07 19:36:00,34.2,20.5,30.29,NE,40,0.0,0.0,57,0.00,,,0.00,WeatherDisplay:10.36,2013-03-08 01:36:00,
2013-03-07 19:41:00,34.0,20.3,30.29,NNE,29,0.0,0.0,57,0.00,,,0.00,WeatherDisplay:10.36,2013-03-08 01:41:00,
2013-03-07 19:46:00,34.0,20.3,30.29,NNE,31,3.5,0.0,57,0.00,,,0.00,WeatherDisplay:10.36,2013-03-08 01:46:00,
2013-03-07 19:51:00,34.0,20.7,30.29,NE,35,3.1,0.0,58,0.00,,,0.00,WeatherDisplay:10.36,2013-03-08 01:51:00,
2013-03-07 19:56:00,34.0,20.7,30.29,NNE,26,4.0,4.0,58,0.00,,,0.00,WeatherDisplay:10.36,2013-03-08 01:56:00,
2013-03-07 20:01:00,33.8,20.6,30.29,NNE,27,0.0,0.0,58,0.00,,,0.00,WeatherDisplay:10.36,2013-03-08 02:01:00,
2013-03-07 20:06:00,33.8,20.6,30.29,NNE,26,4.0,4.0,58,0.00,,,0.00,WeatherDisplay:10.36,2013-03-08 02:06:00,
2013-03-07 20:11:00,33.8,21.4,30.29,NNE,26,3.5,3.5,60,0.00,,,0.00,WeatherDisplay:10.36,2013-03-08 02:11:00,
2013-03-07 20:16:00,33.8,21.4,30.29,ENE,60,4.5,4.5,60,0.00,,,0.00,WeatherDisplay:10.36,2013-03-08 02:16:00,
2013-03-07 20:21:00,33.8,21.8,30.26,NE,34,5.8,5.8,61,0.00,,,0.00,WeatherDisplay:10.36,2013-03-08 02:21:00,
2013-03-07 20:26:00,33.6,21.6,30.26,NNE,28,5.8,5.8,61,0.00,,,0.00,WeatherDisplay:10.36,2013-03-08 02:26:00,
2013-03-07 20:31:00,33.6,22.0,30.26,NNE,29,4.5,4.5,62,0.00,,,0.00,WeatherDisplay:10.36,2013-03-08 02:31:00,
2013-03-07 20:36:00,33.6,22.4,30.29,NNE,29,3.6,3.6,63,0.00,,,0.00,WeatherDisplay:10.36,2013-03-08 02:36:00,
2013-03-07 20:41:00,33.4,22.2,30.29,NE,51,4.0,4.0,63,0.00,,,0.00,WeatherDisplay:10.36,2013-03-08 02:41:00,
2013-03-07 20:46:00,33.3,22.0,30.29,NNE,25,5.4,5.4,63,0.00,,,0.00,WeatherDisplay:10.36,2013-03-08 02:46:00,
2013-03-07 20:51:00,33.3,22.4,30.29,NNE,26,4.6,4.6,64,0.00,,,0.00,WeatherDisplay:10.36,2013-03-08 02:51:00,
2013-03-07 20:56:00,33.3,22.4,30.29,NE,35,4.9,4.9,64,0.00,,,0.00,WeatherDisplay:10.36,2013-03-08 02:56:00,
2013-03-07 21:01:00,33.1,22.2,30.29,NE,37,4.5,4.5,64,0.00,,,0.00,WeatherDisplay:10.36,2013-03-08 03:01:00,
2013-03-07 21:06:00,33.1,22.2,30.26,East,80,3.6,3.6,64,0.00,,,0.00,WeatherDisplay:10.36,2013-03-08 03:06:00,
2013-03-07 21:11:00,33.1,22.6,30.26,East,94,3.6,4.0,65,0.00,,,0.00,WeatherDisplay:10.36,2013-03-08 03:11:00,
2013-03-07 21:16:00,33.1,22.6,30.26,ENE,65,5.4,5.4,65,0.00,,,0.00,WeatherDisplay:10.36,2013-03-08 03:16:00,
2013-03-07 21:22:00,33.1,23.3,30.29,NNE,27,5.8,5.8,67,0.00,,,0.00,WeatherDisplay:10.36,2013-03-08 03:22:00,
2013-03-07 21:27:00,33.1,24.0,30.29,ENE,71,4.9,4.9,69,0.00,,,0.00,WeatherDisplay:10.36,2013-03-08 03:27:00,
2013-03-07 21:33:00,33.1,24.0,30.29,NE,50,5.8,5.8,69,0.00,,,0.00,WeatherDisplay:10.36,2013-03-08 03:33:00,
2013-03-07 21:38:00,33.1,24.4,30.29,East,84,6.9,6.9,70,0.00,,,0.00,WeatherDisplay:10.36,2013-03-08 03:38:00,
2013-03-07 21:43:00,33.1,24.4,30.29,NE,35,5.4,5.4,70,0.00,,,0.00,WeatherDisplay:10.36,2013-03-08 03:43:00,
2013-03-07 21:48:00,32.9,24.2,30.29,NNE,31,4.9,4.9,70,0.00,,,0.00,WeatherDisplay:10.36,2013-03-08 03:48:00,
2013-03-07 21:53:00,32.9,24.2,30.29,East,89,6.3,6.3,70,0.00,,,0.00,WeatherDisplay:10.36,2013-03-08 03:53:00,
2013-03-07 21:58:00,32.9,24.5,30.29,East,83,6.3,6.3,71,0.00,,,0.00,WeatherDisplay:10.36,2013-03-08 03:58:00,
2013-03-07 22:03:00,32.7,24.3,30.29,SSE,166,3.6,0.0,71,0.00,,,0.00,WeatherDisplay:10.36,2013-03-08 04:03:00,
2013-03-07 22:08:00,32.7,24.3,30.29,East,95,4.6,4.6,71,0.00,,,0.00,WeatherDisplay:10.36,2013-03-08 04:08:00,
2013-03-07 22:13:00,32.7,24.3,30.29,NE,52,4.6,4.6,71,0.00,,,0.00,WeatherDisplay:10.36,2013-03-08 04:13:00,
2013-03-07 22:18:00,32.7,24.3,30.29,East,80,6.9,6.9,71,0.00,,,0.00,WeatherDisplay:10.36,2013-03-08 04:18:00,
2013-03-07 22:23:00,32.7,24.7,30.29,NE,37,3.5,0.0,72,0.00,,,0.00,WeatherDisplay:10.36,2013-03-08 04:23:00,
2013-03-07 22:28:00,32.7,24.7,30.29,WSW,251,5.8,5.8,72,0.00,,,0.00,WeatherDisplay:10.36,2013-03-08 04:28:00,
2013-03-07 22:33:00,32.7,25.0,30.29,ENE,64,6.9,6.9,73,0.00,,,0.00,WeatherDisplay:10.36,2013-03-08 04:33:00,
2013-03-07 22:38:00,32.9,25.2,30.29,ENE,78,4.6,4.6,73,0.00,,,0.00,WeatherDisplay:10.36,2013-03-08 04:38:00,
2013-03-07 22:43:00,32.9,25.2,30.29,ENE,59,4.6,4.6,73,0.00,,,0.00,WeatherDisplay:10.36,2013-03-08 04:43:00,
2013-03-07 22:48:00,32.9,25.2,30.29,ENE,62,3.6,3.6,73,0.00,,,0.00,WeatherDisplay:10.36,2013-03-08 04:48:00,
2013-03-07 22:53:00,32.9,25.2,30.29,NE,38,4.6,4.6,73,0.00,,,0.00,WeatherDisplay:10.36,2013-03-08 04:53:00,
2013-03-07 22:58:00,32.9,25.2,30.29,East,79,3.6,3.6,73,0.00,,,0.00,WeatherDisplay:10.36,2013-03-08 04:58:00,
2013-03-07 23:00:00,32.9,25.2,30.29,NE,40,4.0,4.0,73,0.00,,,0.00,WeatherDisplay:10.36,2013-03-08 05:00:00,
2013-03-07 23:01:00,32.9,25.2,30.29,ESE,112,0.0,2.7,73,0.00,,,0.00,WeatherDisplay:10.36,2013-03-08 05:01:00,
2013-03-07 23:06:00,32.9,25.2,30.29,ESE,103,4.0,4.0,73,0.00,,,0.00,WeatherDisplay:10.36,2013-03-08 05:06:00,
2013-03-07 23:07:00,32.9,25.2,30.29,ESE,103,4.0,4.0,73,0.00,,,0.00,WeatherDisplay:10.36,2013-03-08 05:07:00,
2013-03-07 23:12:00,32.9,25.2,30.29,NNE,33,4.9,4.9,73,0.00,,,0.00,WeatherDisplay:10.36,2013-03-08 05:12:00,
2013-03-07 23:17:00,33.1,25.7,30.29,NE,39,4.6,4.6,74,0.00,,,0.00,WeatherDisplay:10.36,2013-03-08 05:17:00,
2013-03-07 23:22:00,32.9,25.5,30.29,WSW,250,4.9,4.9,74,0.00,,,0.00,WeatherDisplay:10.36,2013-03-08 05:22:00,
2013-03-07 23:27:00,32.9,25.5,30.29,NE,40,4.9,4.9,74,0.00,,,0.00,WeatherDisplay:10.36,2013-03-08 05:27:00,
2013-03-07 23:32:00,32.9,25.5,30.29,NE,43,5.8,5.8,74,0.00,,,0.00,WeatherDisplay:10.36,2013-03-08 05:32:00,
2013-03-07 23:37:00,32.9,25.8,30.29,NNE,26,6.9,6.9,75,0.00,,,0.00,WeatherDisplay:10.36,2013-03-08 05:37:00,
2013-03-07 23:39:00,32.9,25.8,30.29,NE,35,3.6,3.6,75,0.00,,,0.00,WeatherDisplay:10.36,2013-03-08 05:39:00,
2013-03-07 23:44:00,32.7,25.7,30.29,NNE,27,4.0,4.0,75,0.00,,,0.00,WeatherDisplay:10.36,2013-03-08 05:44:00,
2013-03-07 23:50:00,32.7,25.7,30.29,East,98,5.4,5.4,75,0.00,,,0.00,WeatherDisplay:10.36,2013-03-08 05:50:00,
2013-03-07 23:55:00,32.5,25.5,30.29,NNE,32,5.8,5.8,75,0.00,,,0.00,WeatherDisplay:10.36,2013-03-08 05:55:00,